www.pogodaiklimat.ru

Погода и климат >> Архив погоды >> Индия >> Ludhiana


ПОГОДА в Ludhiana

  • Прогноз погоды в Ludhiana
  • Монитор погоды в Ludhiana
  • Климат города

АРХИВ ПОГОДЫ в Ludhiana

Время (UTC), дата Ветер
(напр.,м/с)
 
Видим.   Явления Облачность Т
(С)
Тd
(С)
f
(%)
Тe
(С)
Тes
(С)
Комфортность P
(гПа)
Po
(гПа)
Тmin
(С)
Tmax
(С)
R
(мм)
R24
(мм)
S
(см)
03 14.11 штиль 0 1000 м дымка {туман} 5/0 2000 м
[As trans]
+16.8 +14.0 84 +17 +18 1012.6 1013.0 +13.9 +28.0
09 14.11 Ю 2 1000 м мгла {туман} 8/0 2000 м
[As trans]
+26.6 +13.4 44 +29 +32 жарко 1009.2 1009.0
12 14.11 СЗ 2 500 м мгла {туман} 8/0 2000 м
[As trans]
+21.4 +15.0 67 +25 +25 комфорт 1010.7 1011.0 +26.8
03 15.11 СЗ 2 1000 м дымка ясно +15.0 +12.1 83 +15 +16 1018.2 1018.0 +12.4 +26.8 0.0
06 15.11 СЗ 1 2000 м мгла {туман} ясно +22.0 +11.2 50 +24 +34 комфорт 1018.1 1018.0
09 15.11 С 3 2000 м мгла ясно +25.0 +10.3 40 +26 +31 жарко 1015.8 1016.0
12 15.11 СЗ 2 1000 м мгла ясно +21.0 +11.3 54 +24 +24 комфорт 1015.5 1016.0 +25.4
03 16.11 З 1 1000 м мгла ясно +16.6 +9.8 64 +17 +19 1015.7 1016.0 +12.0 +25.4
06 16.11 З 2 4000 м мгла 5/0
[Ci fib]
+23.4 +8.9 40 +25 +32 комфорт 1015.0 1015.0
09 16.11 З 3 4000 м мгла ясно +25.6 +4.6 26 +25 +30 комфорт 1012.2 1012.0
12 16.11 З 2 2000 м мгла 3/0
[Ci sp]
+22.2 +6.0 35 +23 +23 комфорт 1011.6 1012.0 +25.8
03 17.11 штиль 0 1000 м в посл. час туман ясно +15.4 +11.7 79 +15 +17 1013.9 1014.0 +10.3 +25.8
06 17.11 З 2 2000 м мгла {туман} 4/0
[Ci sp]
+23.6 +9.2 40 +24 +32 комфорт 1013.5 1014.0
09 17.11 СЗ 2 4000 м мгла 6/0
[Ci fib]
+25.8 +6.8 30 +26 +31 жарко 1010.3 1010.0
12 17.11 штиль 0 1000 м мгла 5/0
[Ci fib]
+23.0 +10.3 45 +25 +25 комфорт 1010.0 1010.0 +26.2
03 18.11 В 2 1000 м дымка ясно +13.6 +10.1 79 +13 +15 1014.9 1015.0 +8.8 +26.2
06 18.11 В 2 1000 м мгла ясно +23.0 +8.8 40 +24 +33 комфорт 1014.5 1015.0
09 18.11 штиль 0 2000 м мгла 3/3 1200 м
[Sc]
+26.2 +8.0 32 +26 +32 жарко 1012.0 1012.0
12 18.11 штиль 0 1000 м мгла 4/4 1200 м
[Sc]
+22.8 +12.3 52 +26 +26 жарко 1012.2 1012.0 +26.9
03 19.11 штиль 0 2000 м дымка ясно +15.8 +12.2 79 +16 +17 1017.0 1017.0 +13.2 +26.9
06 19.11 В 2 2000 м мгла ясно +24.8 +10.5 41 +26 +34 жарко 1016.7 1017.0
09 19.11 ЮВ 3 2000 м мгла ясно +26.4 +9.4 34 +27 +31 жарко 1014.7 1015.0
12 19.11 штиль 0 1000 м мгла ясно +22.6 +12.0 51 +25 +25 комфорт 1014.8 1015.0 +27.0
03 20.11 штиль 0 500 м туман ясно +15.0 +13.2 89 +15 +16 1018.5 1019.0 +12.0 +27.0
06 20.11 З 3 2000 м мгла ясно +24.4 +9.9 40 +25 +32 комфорт 1017.3 1017.0
09 20.11 З 3 2000 м мгла ясно +26.4 +9.4 34 +27 +31 жарко 1014.6 1015.0
12 20.11 З 1 1000 м мгла ясно +23.0 +9.3 42 +25 +25 комфорт 1014.8 1015.0 +27.7

 

Местоположение метеостанции Ludhiana (Punjab, Индия): широта 30.87 долгота 75.93 высота над уровнем моря 255 м.

В архиве по умолчанию представлена погода в Ludhiana за последнюю неделю. Архивные данные за месяц целиком и за предыдущие месяцы, начиная с января 2011 года, Вы можете получить, выбрав интересующий диапазон дат из раскрывающегося списка и нажав кнопку "Ввод!".


*Определитесь, кто Вы:
робот инопланетянин человек

Внимание! Время в таблицах - всемирное. Для получения местного времени необходимо прибавить поправку, которая в Ludhiana равна 5.5 ч.

Смотрите также архив погоды в соседних городах и на ближайших метеорологических станциях:

Погода в Una (Himachal Pradesh, Индия) (74 км)
Погода в Patiala (Punjab, Индия) (79 км)
Погода в Chandigarh (Chandigarh, Индия) (85 км)
Погода в Ambala (Haryana, Индия) (96 км)
Погода в Sundernagar (Himachal Pradesh, Индия) (118 км)
Погода в Shimla (Himachal Pradesh, Индия) (121 км)
Погода в Amritsar (Punjab, Индия) (132 км)
Погода в Kangra (Himachal Pradesh, Индия) (141 км)
Погода в Bhuntar (Himachal Pradesh, Индия) (159 км)
Погода в Dharamsala (Himachal Pradesh, Индия) (161 км)

Пояснения к столбцам:

Ветер - указаны скорость ветра в м/с - средняя за 10 мин, порывы в срок и между сроками (в фигурных скобках) и направление, откуда дует ветер: С - северный, СВ - северо-восточный, В - восточный, ЮВ - юго-восточный, Ю - южный, ЮЗ - юго-западный, З - западный, СЗ - северо-западный.
Видимость - горизонтальная дальность видимости в метрах или километрах. При видимости от 1 до 10 км при отсутствии осадков обычно наблюдается дымка, при ухудшении видимости до 1 км и менее - туман. В сухую погоду видимость может ухудшаться дымом, пылью или мглою.
Явления - указаны атмосферные явления, наблюдавшиеся в срок или в последний час перед сроком; фигурными скобками обозначены явления, наблюдавшиеся между сроками (за 1-3 часа до срока); квадратными скобками обозначены град или гололедные отложения с указанием их диаметра в мм.
Облачность - указаны через наклонную черту общая и нижняя облачность в баллах и высота нижней границы облаков в метрах; квадратными скобками обозначены формы облаков: Ci - перистые, Cs - перисто-слоистые, Cc - перисто-кучевые, Ac - высококучевые, As - высокослоистые, Sc - слоисто-кучевые, Ns - слоисто-дождевые, Cu - кучевые, Cb - кучево-дождевые. Подробнее классификацию облаков см. в Атласе облаков (PDF).
T - Температура воздуха - температура, измеренная на высоте 2 м над землей.
Td - Температура точки росы - температура, при понижении до которой содержащийся в воздухе водяной пар достигнет насыщения.
f - Относительная влажность воздуха - влажноcть воздуха, измеренная на высоте 2 м над землей.
Te - Эффективная температура - температура, которую ощущает одетый по сезону человек в тени. Характеристика душности погоды. При расчете учитывается влияние влажности воздуха и скорости ветра на теплоощущения человека.
Tes - Эффективная температура на солнце - температура, которую ощущает человек, с поправкой на солнечный нагрев. Характеристика знойности погоды. Зависит от высоты солнца над горизонтом, облачности и скорости ветра. Ночью, в пасмурную погоду, а также при ветре 12 м/с и более поправка равна нулю.
P - Атмосферное давление - приведенное к уровню моря атмосферное давление.
Po - Атмосферное давление - измеренное на уровне метеостанции атмосферное давление.
Tmin - Минимальная температура - минимум температуры воздуха на высоте 2 м над землей.
Tmax - Максимальная температура - максимум температуры воздуха на высоте 2 м над землей.
R - Количество осадков - Количество выпавших осадков за период времени, мм. При наведении курсора мыши на число - период времени, за который выпало указанное количество осадков.
R24 - Количество осадков - Количество выпавших осадков за 24 часа, мм.
S - Снежный покров - Высота снежного покрова, см. При наведении курсора мыши на число - состояние снежного покрова и степень покрытия местности в баллах.